[[{"header":{"parameterUnit":"m.s-1","parameterCategory":1,"la1":30.2991,"la2":30.254,"lo1":-89.0895,"lo2":-89.0444,"dy":0.0017,"dx":0.0017,"nx":28,"ny":28,"refTime":"2025-01-10T09:00:00:Z","depth":0,"parameterNumber":2,"parameterNumberName":"U-component_of_WINDS"},"data":[0,0,0,0,0,0,0,0,0,0,0,0,0,0,0,0,0,0,0,0,0,0,0,0,0,0,0,0,0,0,0,0,0,0,0,0,0,0,0,0,0,0,0,0,0,0,0,0,0,0,0,0,0,0,0,0,0,0,-7.1136,-7.1137,0,-7.1292,-7.1294,-7.1296,-7.1265,-7.1262,-7.1259,-7.1256,-7.1412,-7.1419,-7.1426,0,0,0,0,0,0,0,0,0,0,0,0,0,-7.0804,-7.081,-7.1135,-7.1137,-7.1139,-7.1292,-7.1294,-7.1296,-7.1265,-7.1262,-7.1258,-7.1255,-7.141,-7.1418,-7.1426,0,0,0,0,0,0,0,0,0,0,0,0,0,-7.0953,-7.0812,-7.1135,-7.1142,-7.1144,-7.1292,-7.1294,-7.1297,-7.1266,-7.1262,-7.1257,-7.1253,-7.1408,-7.1417,-7.1428,-7.1576,0,0,-7.1459,-7.1463,0,0,0,0,0,0,0,0,-7.0944,-7.0965,-7.1139,-7.1142,-7.1145,-7.1255,-7.1235,-7.139,-7.1267,-7.122,-7.1256,-7.1251,-7.1363,-7.1377,-7.1415,-7.1583,-7.159,-7.146,-7.1466,-7.147,-7.1473,0,0,0,0,0,0,0,-7.0934,-7.0958,-7.1197,-7.1142,-7.1145,-7.1136,-7.1152,-7.1264,-7.1313,-7.1223,-7.1222,-7.1241,-7.1364,-7.1406,-7.1419,-7.1592,-7.1459,-7.1468,-7.1475,-7.1479,-7.1886,-7.1891,0,0,0,0,0,0,-7.0922,-7.095,-7.1192,-7.1202,-7.1032,-7.1145,-7.1164,-7.1224,-7.1312,-7.1321,-7.1244,-7.1239,-7.139,-7.1407,-7.1424,-7.16,-7.147,-7.148,-7.1486,-7.1882,-7.1887,-7.1892,0,0,0,0,0,0,-7.0915,-7.0944,-7.1186,-7.1076,-7.1106,-7.1156,-7.1223,-7.1229,-7.1271,-7.1328,-7.1336,-7.1278,-7.1388,-7.141,-7.1538,-7.1605,-7.1484,-7.1494,-7.1876,-7.1883,-7.189,-7.1956,0,0,0,0,0,0,-7.0906,-7.0942,-7.1,-7.1077,-7.1112,-7.1299,-7.1227,-7.1235,-7.1289,-7.1283,-7.1362,-7.1371,-7.1386,-7.1523,-7.1548,-7.1617,-7.1502,-7.187,-7.1879,-7.1888,-7.1948,-7.1964,-7.1978,0,0,0,0,0,-7.0894,-7.1012,-7.1003,-7.1032,-7.1185,-7.1303,-7.1322,-7.1339,-7.1295,-7.1352,-7.1389,-7.1368,-7.1595,-7.1536,-7.1564,-7.1638,-7.1866,-7.1877,-7.1887,-7.1941,-7.1961,-7.1978,0,0,0,0,0,0,-7.0939,-7.1022,-7.1013,-7.116,-7.1225,-7.1297,-7.137,-7.136,-7.1438,-7.1429,-7.1445,-7.1463,-7.1592,-7.1629,-7.1562,-7.1784,-7.1724,-7.1741,-7.1755,-7.1775,-7.179,-7.1776,-7.151,0,0,0,0,0,-7.0967,-7.1057,-7.1124,-7.1246,-7.128,-7.132,-7.1371,-7.1379,-7.1446,-7.1473,-7.1519,-7.1583,-7.1669,-7.1725,-7.1807,-7.1955,-7.1969,-7.2019,-7.2034,-7.2046,-7.2059,-7.2136,-7.2158,-7.1927,-7.1927,-7.1927,0,0,-7.1023,-7.108,-7.1135,-7.1257,-7.1308,-7.1398,-7.1343,-7.1442,-7.1508,-7.1487,-7.161,-7.1647,-7.172,-7.1857,-7.192,-7.1891,-7.2127,-7.206,-7.2069,-7.2075,-7.2149,-7.2171,-7.219,-7.1934,-7.1933,-7.1932,0,0,-7.1172,-7.1226,-7.1332,-7.1385,-7.1463,-7.1489,-7.1515,-7.159,-7.1613,-7.1738,-7.1723,-7.1802,-7.1951,-7.2002,-7.2048,-7.2217,-7.2199,-7.2243,-7.2321,-7.2396,-7.2414,-7.243,-7.2486,-7.2507,-7.2257,-7.2257,-7.2257,0,-7.1231,-7.1368,-7.1388,-7.1487,-7.154,-7.1528,-7.1634,-7.1684,-7.1785,-7.182,-7.1788,-7.1972,-7.2021,-7.2168,-7.2209,-7.2249,-7.2276,-7.2232,-7.2411,-7.2427,-7.2442,-7.2495,-7.2517,-7.2261,-7.2261,-7.226,-7.226,0,-7.1436,-7.1531,-7.1608,-7.1706,-7.1768,-7.1871,-7.1903,-7.1963,-7.1966,-7.1995,-7.212,-7.2179,-7.2271,-7.2308,-7.2311,-7.2456,-7.2435,-7.2407,-7.2345,-7.2468,-7.2518,-7.2539,-7.2268,-7.2266,-7.2265,-7.2264,0,0,-7.1614,-7.1722,-7.1749,-7.1793,-7.1879,-7.1952,-7.2054,-7.2146,-7.2195,-7.2266,-7.2349,-7.2475,-7.2449,-7.2501,-7.251,-7.2577,-7.2702,-7.254,-7.2542,-7.2564,-7.286,-7.2877,-7.2901,-7.2693,-7.2697,-7.27,-7.2852,0,-7.1766,-7.1946,-7.1966,-7.2125,-7.2211,-7.2202,-7.229,-7.2351,-7.2382,-7.2458,-7.2491,-7.2578,-7.254,-7.257,-7.2637,-7.2672,-7.276,-7.2663,-7.2766,-7.277,-7.2743,-7.2928,-7.2946,-7.3087,-7.2872,-7.2876,-7.2878,0,-7.1967,-7.2044,-7.2212,-7.2285,-7.2322,-7.24,-7.2485,-7.256,-7.2628,-7.2646,-7.2704,-7.2705,-7.2807,-7.2746,-7.2885,-7.2818,-7.2863,-7.2887,-7.2893,-7.2899,-7.2828,-7.2934,-7.3132,-7.3151,-7.291,-7.2908,-7.2906,0,-7.2074,-7.222,-7.2338,-7.2377,-7.2466,-7.2521,-7.256,-7.2625,-7.2678,-7.2753,-7.2787,-7.2872,-7.2917,-7.2982,-7.3005,-7.2959,-7.3142,-7.3084,-7.3156,-7.3155,-7.319,-7.3187,-7.3394,-7.3228,-7.3228,-7.3227,-7.3227,0,-7.2239,-7.2341,-7.2387,-7.2459,-7.2573,-7.2595,-7.2706,-7.2743,-7.2801,-7.2879,-7.2877,-7.295,-7.2978,-7.3055,-7.3074,-7.3184,-7.3206,-7.322,-7.3223,-7.3218,-7.3215,-7.3243,-7.3232,-7.3233,-7.3232,-7.3231,-7.323,0,-7.2375,-7.2411,-7.2538,-7.2613,-7.2634,-7.2714,-7.2776,-7.2845,-7.2876,-7.2974,-7.2998,-7.3045,-7.3135,-7.3166,-7.3275,-7.3288,-7.3415,-7.3412,-7.3391,-7.339,-7.3459,-7.345,-7.3687,-7.3717,-7.3536,-7.3538,-7.3539,0,-7.2475,-7.2553,-7.2636,-7.2689,-7.273,-7.2816,-7.287,-7.2896,-7.2952,-7.3036,-7.3094,-7.3185,-7.3257,-7.3402,-7.3444,-7.3527,-7.3523,-7.3601,-7.3535,-7.3526,-7.3518,-7.3511,-7.3517,-7.3611,-7.3613,-7.3614,-7.3616,0,-7.2648,-7.2662,-7.2741,-7.2826,-7.2892,-7.296,-7.3026,-7.3069,-7.3104,-7.3168,-7.326,-7.3317,-7.3429,-7.3517,-7.3602,-7.3641,-7.3633,-7.3637,-7.3657,-7.3649,-7.3632,-7.3637,-7.3419,-7.363,-7.3628,-7.3627,-7.3626,-7.3626,-7.2765,-7.2833,-7.2902,-7.299,-7.3043,-7.3104,-7.3172,-7.3211,-7.3289,-7.3383,-7.3394,-7.3493,-7.3559,-7.3672,-7.3715,-7.3792,-7.377,-7.38,-7.3807,-7.3813,-7.3816,-7.3625,-7.3808,-7.3808,-7.3807,-7.3807,-7.3807,0,-7.2933,-7.2978,-7.3059,-7.3151,-7.322,-7.321,-7.3283,-7.334,-7.3427,-7.349,-7.3562,-7.3668,-7.3754,-7.3804,-7.3889,-7.394,-7.3939,-7.3961,-7.3955,-7.3963,-7.3833,-7.3804,-7.3961,-7.3961,-7.3961,-7.3961,-7.3961,-7.3961,-7.3028,-7.3141,-7.3164,-7.3302,-7.3346,-7.3443,-7.3485,-7.3541,-7.3591,-7.3709,-7.3781,-7.3814,-7.3871,-7.396,-7.4038,-7.405,-7.4079,-7.4104,-7.4113,-7.3989,-7.3973,-7.3957,-7.3931,-7.4111,-7.4111,-7.4236,-7.4238,-7.4238]},{"header":{"parameterUnit":"m.s-1","parameterCategory":1,"la1":30.2991,"la2":30.254,"lo1":-89.0895,"lo2":-89.0444,"dy":0.0017,"dx":0.0017,"nx":28,"ny":28,"refTime":"2025-01-10T09:00:00:Z","depth":0,"parameterNumber":3,"parameterNumberName":"V-component_of_WINDS"},"data":[0,0,0,0,0,0,0,0,0,0,0,0,0,0,0,0,0,0,0,0,0,0,0,0,0,0,0,0,0,0,0,0,0,0,0,0,0,0,0,0,0,0,0,0,0,0,0,0,0,0,0,0,0,0,0,0,0,0,1.245,1.2452,0,1.2602,1.2604,1.2605,1.2498,1.2493,1.2488,1.2484,1.2646,1.2654,1.2663,0,0,0,0,0,0,0,0,0,0,0,0,0,1.2077,1.2084,1.245,1.2452,1.2454,1.2602,1.2604,1.2606,1.2499,1.2493,1.2487,1.2482,1.2643,1.2653,1.2664,0,0,0,0,0,0,0,0,0,0,0,0,0,1.2235,1.2087,1.2449,1.2418,1.2417,1.2601,1.2604,1.2606,1.25,1.2493,1.2486,1.2479,1.2639,1.2652,1.2665,1.2891,0,0,1.2705,1.2711,0,0,0,0,0,0,0,0,1.2226,1.2249,1.2421,1.242,1.2419,1.2523,1.2531,1.2702,1.2502,1.2469,1.2484,1.2475,1.2611,1.2626,1.2671,1.2898,1.2905,1.2706,1.2714,1.272,1.2724,0,0,0,0,0,0,0,1.2216,1.2242,1.251,1.2423,1.2423,1.24,1.2414,1.2563,1.2579,1.2471,1.2464,1.2483,1.2609,1.2658,1.2674,1.2908,1.2706,1.2718,1.2726,1.2731,1.3339,1.3347,0,0,0,0,0,0,1.2206,1.2233,1.2505,1.2515,1.2303,1.2412,1.2428,1.2497,1.2577,1.2582,1.2489,1.2477,1.2639,1.2659,1.2679,1.2957,1.272,1.2732,1.274,1.3331,1.3341,1.3349,0,0,0,0,0,0,1.2199,1.2231,1.2499,1.2372,1.2404,1.2426,1.2505,1.2504,1.2553,1.259,1.2593,1.2535,1.2634,1.2661,1.2841,1.2961,1.2738,1.275,1.3321,1.3334,1.3345,1.3509,0,0,0,0,0,0,1.2188,1.2229,1.2313,1.2375,1.2412,1.2656,1.2512,1.2512,1.2575,1.2562,1.2635,1.264,1.2631,1.2822,1.2854,1.2975,1.2761,1.331,1.3327,1.3341,1.3493,1.3526,1.3553,0,0,0,0,0,1.2175,1.2352,1.2317,1.2351,1.2516,1.2663,1.2684,1.2669,1.2585,1.2672,1.2697,1.2638,1.2941,1.2841,1.2876,1.3003,1.3303,1.3322,1.334,1.348,1.3519,1.3553,0,0,0,0,0,0,1.2304,1.2359,1.2322,1.2523,1.2589,1.2644,1.2753,1.2709,1.2802,1.2786,1.2763,1.2781,1.2972,1.3004,1.2892,1.3231,1.3109,1.3136,1.3204,1.3241,1.3271,1.3263,1.2772,0,0,0,0,0,1.2355,1.2467,1.251,1.2684,1.2719,1.2731,1.2794,1.2776,1.2845,1.2873,1.291,1.2981,1.3094,1.3168,1.3272,1.3495,1.3515,1.36,1.363,1.3655,1.368,1.3811,1.3852,1.341,1.341,1.341,0,0,1.2463,1.2507,1.2579,1.2711,1.276,1.2882,1.2755,1.2886,1.2978,1.2893,1.3068,1.3099,1.3177,1.3382,1.3474,1.3415,1.3806,1.3678,1.3698,1.371,1.3834,1.3876,1.3913,1.3423,1.3421,1.3419,0,0,1.2724,1.2765,1.2919,1.2972,1.3048,1.3055,1.3092,1.3156,1.3174,1.3348,1.3289,1.3399,1.3589,1.3651,1.3707,1.3997,1.395,1.4031,1.4191,1.4318,1.4353,1.4384,1.4497,1.4537,1.4055,1.4055,1.4056,0,1.285,1.3028,1.3003,1.3143,1.3206,1.3133,1.3293,1.3346,1.3453,1.3501,1.3431,1.3676,1.3722,1.3946,1.4017,1.4061,1.411,1.4026,1.4349,1.438,1.4409,1.4517,1.4558,1.4066,1.4064,1.4063,1.4062,0,1.3184,1.3309,1.3424,1.3531,1.3606,1.3754,1.3758,1.3837,1.3814,1.3831,1.4014,1.4068,1.4186,1.4236,1.4213,1.446,1.4422,1.4351,1.423,1.4462,1.4563,1.4603,1.408,1.4077,1.4073,1.4071,0,0,1.3531,1.3626,1.3669,1.3721,1.3802,1.39,1.4048,1.4163,1.4237,1.4313,1.4442,1.4608,1.4546,1.461,1.4593,1.4704,1.4943,1.4621,1.4623,1.4688,1.5229,1.5288,1.5336,1.4909,1.4917,1.4923,1.5226,0,1.3803,1.406,1.4045,1.4288,1.4409,1.4344,1.4474,1.4541,1.4561,1.4669,1.469,1.4813,1.4715,1.4756,1.4861,1.4892,1.5053,1.4868,1.5037,1.5043,1.5028,1.5387,1.5448,1.5732,1.5264,1.5271,1.5275,0,1.4155,1.4248,1.4503,1.4574,1.4624,1.4741,1.485,1.4951,1.5028,1.5035,1.511,1.5077,1.5233,1.5103,1.5322,1.5197,1.5265,1.529,1.5301,1.5323,1.5179,1.5428,1.582,1.5867,1.5336,1.5331,1.5326,0,1.4396,1.4582,1.4762,1.4806,1.4891,1.4976,1.5016,1.5085,1.5158,1.5253,1.5302,1.5414,1.5478,1.5568,1.5569,1.5473,1.5795,1.5662,1.5812,1.5813,1.5889,1.5885,1.6307,1.5917,1.5917,1.5916,1.5915,0,1.4707,1.4868,1.4872,1.4984,1.5165,1.5147,1.5329,1.5359,1.5423,1.5544,1.5491,1.5606,1.5597,1.5714,1.5716,1.5903,1.5929,1.5945,1.5946,1.5955,1.5955,1.6005,1.5989,1.5927,1.5925,1.5923,1.5921,0,1.5008,1.5015,1.5209,1.5274,1.5294,1.5427,1.5484,1.5593,1.5608,1.5762,1.5797,1.5824,1.5961,1.5969,1.6125,1.6127,1.6358,1.6331,1.6333,1.6331,1.6484,1.6474,1.696,1.7028,1.6585,1.6589,1.6593,0,1.521,1.5333,1.5413,1.549,1.5535,1.5658,1.5733,1.5722,1.5803,1.5904,1.6003,1.6134,1.6239,1.6461,1.6497,1.6619,1.6601,1.6763,1.662,1.6629,1.6616,1.6613,1.663,1.6794,1.6799,1.6803,1.6806,0,1.5571,1.5571,1.568,1.5794,1.5885,1.5974,1.6057,1.6123,1.6122,1.6217,1.6356,1.6438,1.66,1.6735,1.6855,1.6899,1.6858,1.685,1.6894,1.6909,1.6909,1.6922,1.6419,1.6841,1.6838,1.6835,1.6833,1.6832,1.5836,1.5946,1.6022,1.6148,1.6209,1.6289,1.6398,1.6428,1.6543,1.6675,1.666,1.6818,1.6898,1.7055,1.711,1.7236,1.7181,1.7241,1.7258,1.7276,1.7297,1.6882,1.7256,1.7255,1.7254,1.7254,1.7253,0,1.6203,1.6249,1.6365,1.6484,1.6586,1.6532,1.6622,1.6713,1.6851,1.6928,1.7034,1.7199,1.733,1.7377,1.7507,1.76,1.7584,1.7635,1.7633,1.7646,1.7333,1.7287,1.7646,1.7646,1.7646,1.7646,1.7646,1.7646,1.6407,1.6594,1.6603,1.6823,1.6868,1.7021,1.7079,1.7156,1.7218,1.7405,1.7514,1.7542,1.7611,1.7746,1.7867,1.7877,1.7932,1.7994,1.7998,1.7706,1.7667,1.7629,1.7587,1.8003,1.8004,1.8302,1.8305,1.8307]}]]